This is the latest recevied weather packets stored in our database for station/object YD8XVB-13. If no packets are shown the sender has not sent any weather packets the latest 10 day(s).
| Time | Temp. | Humidity | Pressure | Rain* | Wind** | Luminosity | Snow |
|---|---|---|---|---|---|---|---|
| 1777792060 | 33.89° C | 95% | 0 hPa | - | - | 0 W/m² | - |
| 1777791758 | 33.33° C | 95% | 0 hPa | - | - | 0 W/m² | - |
| 1777788021 | 37.78° C | 55% | 0 hPa | - | - | 0 W/m² | - |
| 1777787421 | 36.67° C | 11% | 0 hPa | - | - | 0 W/m² | - |
| 1777786820 | 36.67° C | 11% | 0 hPa | - | - | 0 W/m² | - |
| 1777786218 | 36.67° C | 11% | 0 hPa | - | - | 0 W/m² | - |
| 1777785618 | 36.11° C | 11% | 0 hPa | - | - | 0 W/m² | - |
| 1777785018 | 37.78° C | 95% | 0 hPa | - | - | 0 W/m² | - |
| 1777784718 | 37.22° C | 95% | 0 hPa | - | - | 0 W/m² | - |
| 1777784117 | 38.89° C | 13% | 0 hPa | - | - | 0 W/m² | - |
| 1777783816 | 38.33° C | 95% | 0 hPa | - | - | 0 W/m² | - |
| 1777783515 | 37.78° C | 11% | 0 hPa | - | - | 0 W/m² | - |
| 1777783215 | 36.67° C | 11% | 0 hPa | - | - | 0 W/m² | - |
| 1777782914 | 37.22° C | 11% | 0 hPa | - | - | 0 W/m² | - |
| 1777782614 | 37.22° C | 95% | 0 hPa | - | - | 0 W/m² | - |
| 1777782314 | 37.78° C | 95% | 0 hPa | - | - | 0 W/m² | - |
| 1777782014 | 37.78° C | 95% | 0 hPa | - | - | 0 W/m² | - |
| 1777781714 | 37.78° C | 34% | 0 hPa | - | - | 0 W/m² | - |
| 1777781414 | 38.33° C | 95% | 0 hPa | - | - | 0 W/m² | - |
| 1777781114 | 37.78° C | 12% | 0 hPa | - | - | 0 W/m² | - |
| 1777780814 | 36.67° C | 11% | 0 hPa | - | - | 0 W/m² | - |
| 1777780514 | 36.67° C | 11% | 0 hPa | - | - | 0 W/m² | - |
| 1777780214 | 37.22° C | 11% | 0 hPa | - | - | 0 W/m² | - |
| 1777779914 | 36.67° C | 13% | 0 hPa | - | - | 0 W/m² | - |
| 1777779614 | 37.78° C | 11% | 0 hPa | - | - | 0 W/m² | - |
* Rain since midnight (hover to see other rain measurements)
** Current wind speed in m/s (hover to see current wind gust speed)